Location: *
(37.4917°N, 71.5558°E)
Time: 09:13:07
(UTC+00:00)

ADEOS II - Pass Details

Date: 09 April 2020
Orbit: 799 x 801 km, 98.5° (Epoch: 03 June)

Event Time Altitude Azimuth Distance (km) Brightness Sun altitude
Rises 20:47:57 0° 25° (NNE) 3,316 6.2 -39.6°
Reaches altitude 10° 20:50:36 10° 37° (NE) 2,380 5.2 -39.3°
Enters shadow 20:52:51 21° 57° (ENE) 1,733 4.3 -39.1°
